Snowfall_Accumulation
0.0 0.0 0.0 0.0 0.0 0.0 0.0 0.0 0.0 0.0 0.0 0.0 0.0 0.0 0.0 0.0 0.0 0.0 0.0 0.0 0.0 0.0 0.0 0.0 0.0 0.0 0.0 0.0 0.0 0.0 0.0 0.0 0.0 0.0 0.0 0.0 0.0 0.0
0.0 0.0 0.0 0.0 0.0 0.0 0.0 0.0 0.0 0.0 0.0 0.0 0.0 0.0 0.0 0.0 0.0 0.0 0.0 0.0 0.0 0.0 0.0 0.0 0.0 0.0 0.0 0.0 0.0 0.0 0.0 0.0 0.0 0.0 0.0 0.0 0.0 0.0
0.0 0.0 0.0 0.0 0.0 0.0 0.0 0.0 0.0 0.0 0.0 0.0 0.0 0.0 0.0 0.0 0.0 0.0 0.0 0.0 0.0 0.1 0.0 0.0 0.0 0.0 0.0 0.0 0.0 0.0 0.0 0.0 0.0 0.0 0.0 0.0 0.0 0.0
0.0 0.0 0.0 0.0 0.0 0.0 0.0 0.0 0.0 0.1 0.1 0.1 0.6 0.7 0.5 0.0 0.0 0.0 0.0 0.0 0.0 0.0 0.0 0.0 0.0 0.0 0.0 0.0 0.3 0.2 0.3 0.0 0.0 0.0 0.0 0.0 0.0 0.0
0.0 0.0 0.0 0.0 0.0 0.0 0.0 0.4 0.4 0.3 1.4 1.0 0.5 0.2 0.7 0.0 2.1 0.3 0.0 0.0 0.0 0.0 0.0 0.0 0.0 0.0 0.0 0.0 0.1 0.1 0.1 0.3 0.1 0.0 0.0 0.0 0.0 0.0
0.0 0.0 0.0 0.1 0.0 0.8 0.9 2.3 2.1 1.6 0.9 0.4 0.6 0.7 1.5 0.9 0.7 1.1 0.3 0.4 0.0 0.0 0.0 0.0 0.0 0.0 0.0 0.0 0.0 0.0 0.0 0.0 0.0 0.0 0.0 0.0 0.1 0.0
0.0 0.5 0.2 1.1 1.0 0.8 2.0 1.5 1.1 0.9 2.0 3.0 1.8 1.4 0.4 0.3 0.2 0.1 0.3 0.1 0.1 0.0 0.0 0.0 0.0 0.0 0.0 0.0 0.0 0.0 0.0 0.0 0.1 0.4 0.4 0.5 0.3 0.2
0.0 0.5 1.5 2.9 2.4 1.8 0.7 0.5 0.4 2.2 2.5 1.6 1.6 0.2 0.0 0.1 0.0 0.1 0.5 0.4 0.6 0.0 0.0 0.0 0.0 0.0 0.0 0.0 0.0 0.0 0.1 0.1 0.1 0.2 0.8 0.3 0.6 0.5
3.5 4.1 2.8 2.6 3.0 1.5 0.8 0.6 1.6 0.7 0.5 0.6 0.0 0.0 0.0 0.0 0.8 0.6 0.4 1.0 0.5 0.0 0.0 0.1 0.0 0.0 0.0 0.0 0.0 0.0 0.0 0.1 0.1 0.4 0.7 0.7 0.3 0.5
4.2 3.1 2.4 2.0 1.3 0.7 0.9 0.5 0.3 0.0 0.0 0.0 0.0 0.0 0.4 0.1 0.4 0.9 0.7 0.6 0.1 0.0 0.0 0.3 0.0 0.0 0.0 0.0 0.0 0.0 0.0 0.1 0.1 0.4 0.6 0.9 0.5 0.3
0.6 0.0 0.0 0.0 0.0 0.5 0.4 0.1 0.0 0.0 0.0 0.0 0.2 0.0 0.0 0.0 0.0 0.7 0.6 0.8 0.5 0.0 0.0 0.0 0.0 0.0 0.0 0.0 0.0 0.0 0.0 0.1 0.1 0.1 0.2 0.3 0.4 0.5
0.0 0.0 0.0 0.1 0.2 0.7 0.2 0.0 0.0 0.0 0.3 0.1 0.0 0.0 0.0 0.0 0.0 0.0 0.6 2.5 1.4 1.0 0.0 1.2 0.0 0.3 1.7 0.0 0.0 0.0 0.0 0.0 0.0 0.0 0.0 0.3 0.4 0.5
0.0 0.0 0.0 0.1 0.4 0.1 0.3 0.3 0.2 0.3 0.2 0.0 0.0 0.0 0.0 0.0 0.0 0.0 0.1 2.0 4.0 2.6 0.0 3.7 4.1 0.0 2.1 0.6 0.0 0.0 0.0 0.0 0.0 0.0 0.0 0.0 1.1 1.7
0.1 0.0 0.1 0.3 0.3 0.3 0.3 0.2 0.3 0.2 0.0 0.0 0.0 0.0 0.0 0.0 0.0 0.0 0.0 0.1 0.4 2.4 0.7 1.1 7.4 2.1 4.3 2.6 0.1 0.0 0.0 0.0 0.0 0.1 0.1 0.7 1.4 2.3
0.0 0.0 0.2 0.2 0.2 0.2 0.0 0.0 0.0 0.0 0.1 0.2 0.0 0.0 0.0 0.0 0.0 0.0 0.0 0.0 0.0 0.0 0.2 0.2 1.9 2.2 4.6 5.0 2.6 0.2 0.7 0.0 0.0 0.7 1.4 2.2 2.5 2.6
0.0 0.1 0.3 0.4 0.1 0.0 0.0 0.0 0.1 0.1 0.2 0.7 0.5 0.1 0.0 0.0 0.1 0.0 0.2 0.0 0.5 0.0 0.0 0.0 0.4 1.9 4.4 2.1 3.9 2.3 0.5 1.8 0.8 0.8 1.8 1.4 1.5 2.3
0.8 0.2 0.2 0.1 0.0 0.0 0.0 0.0 0.0 0.1 0.2 0.1 0.4 0.3 0.0 0.0 0.0 0.0 0.1 0.7 1.9 0.2 0.1 0.0 0.0 0.1 0.4 1.4 4.0 0.9 0.7 0.7 1.8 2.8 2.6 2.1 0.8 2.2
0.6 0.6 0.3 0.0 0.2 0.0 0.1 0.1 0.0 0.4 0.6 0.1 1.3 1.2 3.2 3.1 1.8 3.3 1.9 3.0 4.7 4.2 4.1 3.9 1.6 3.6 3.3 4.0 2.1 2.2 2.0 1.8 1.9 2.1 2.2 5.0 2.5 0.5
0.8 0.3 0.5 1.1 1.1 0.2 1.0 2.2 2.4 1.2 2.9 4.8 5.9 5.5 5.4 5.6 5.1 4.4 4.2 4.7 5.2 5.3 5.8 5.4 6.9 9.0 10.3 5.3 2.8 1.0 6.0 4.5 2.0 3.0 2.6 4.0 5.5 3.8
0.3 0.5 0.2 0.6 0.5 2.1 3.9 2.8 4.0 5.3 5.8 6.2 7.5 8.2 8.5 8.8 7.1 5.9 5.0 6.4 6.6 4.8 4.9 5.8 7.0 8.9 14.4 10.5 7.2 3.6 3.0 5.2 7.1 7.1 5.2 4.5 6.9 2.3
0.2 0.3 0.7 0.4 1.9 1.7 3.4 5.2 5.8 5.7 5.9 7.0 6.6 7.1 7.1 9.3 7.0 5.3 5.0 4.7 5.8 6.1 6.5 3.3 3.6 5.4 8.5 11.8 12.5 5.8 5.3 2.9 2.7 10.7 8.8 8.6 5.9 4.5
0.5 0.2 0.4 0.6 1.3 2.1 3.7 4.5 5.2 5.2 5.5 5.0 4.7 5.4 6.1 7.3 7.7 6.4 5.6 7.4 4.8 3.7 5.1 5.1 5.5 6.4 8.5 11.7 8.1 4.1 4.3 5.2 6.1 5.3 4.3 10.1 15.2 14.7
0.4 0.8 0.2 1.6 1.5 2.3 3.5 3.9 3.9 3.5 3.7 4.8 5.2 5.2 5.9 7.1 4.7 5.9 6.7 6.4 6.3 7.1 6.1 7.2 6.5 6.0 5.3 5.2 6.2 5.6 4.1 4.1 4.7 6.0 5.9 5.2 4.3 4.5